| time (UTC) | temp C | wind direction | speed KPH | gust KPH | rain 1hr cm | rain 24hr cm | rain mn cm | humidity % | barometer mb |
| 20260504160134 | 19 | 200 | 0.0 | 0.0 | 0.00 | 0.00 | 0.00 | 43 | 1013.4 |
| 20260504151035 | 18 | 276 | 1.6 | 16.1 | 0.00 | 0.00 | 0.00 | 42 | 1013.8 |
| 20260504150533 | 18 | 246 | 3.2 | 16.1 | 0.00 | 0.00 | 0.00 | 44 | 1013.9 |
| 20260504141215 | 15 | 232 | 1.6 | 9.7 | 0.00 | 0.00 | 0.00 | 50 | 1014.2 |
| 20260504140721 | 15 | 226 | 0.0 | 8.0 | 0.00 | 0.00 | 0.00 | 49 | 1014.2 |
| 20260504140205 | 15 | 233 | 0.0 | 8.0 | 0.00 | 0.00 | 0.00 | 52 | 1014.2 |
| 20260504130326 | 12 | 257 | 0.0 | 0.0 | 0.00 | 0.00 | 0.00 | 58 | 1014.6 |
| 20260504110520 | 8 | 288 | 0.0 | 0.0 | 0.00 | 0.00 | 0.00 | 58 | 1015.3 |
| 20260504100217 | 8 | 288 | 0.0 | 0.0 | 0.00 | 0.00 | 0.00 | 56 | 1015.3 |
| 20260504081906 | 7 | 287 | 0.0 | 0.0 | 0.00 | 0.00 | 0.00 | 60 | 1015.6 |
| 20260504080738 | 7 | 287 | 0.0 | 0.0 | 0.00 | 0.00 | 0.00 | 61 | 1015.5 |
| 20260504080221 | 7 | 287 | 0.0 | 0.0 | 0.00 | 0.00 | 0.00 | 62 | 1015.5 |
| 20260504050542 | 6 | 287 | 0.0 | 0.0 | 0.00 | 0.00 | 0.00 | 60 | 1016.3 |
| 20260504045549 | 7 | 287 | 0.0 | 0.0 | 0.00 | 0.00 | 0.00 | 58 | 1016.3 |
| 20260504045056 | 7 | 287 | 0.0 | 0.0 | 0.00 | 0.00 | 0.00 | 57 | 1016.4 |
| 20260504044556 | 7 | 286 | 0.0 | 0.0 | 0.00 | 0.00 | 0.00 | 57 | 1016.4 |
| 20260504043443 | 7 | 287 | 0.0 | 0.0 | 0.00 | 0.00 | 0.00 | 59 | 1016.3 |
| 20260504042953 | 7 | 287 | 0.0 | 0.0 | 0.00 | 0.00 | 0.00 | 59 | 1016.2 |
| 20260504041834 | 7 | 287 | 0.0 | 0.0 | 0.00 | 0.00 | 0.00 | 58 | 1016.2 |
| 20260504041333 | 7 | 287 | 0.0 | 0.0 | 0.00 | 0.00 | 0.00 | 58 | 1016.1 |
| 20260504035553 | 7 | 287 | 0.0 | 0.0 | 0.00 | 0.00 | 0.00 | 60 | 1016.0 |
| 20260504035040 | 7 | 287 | 0.0 | 0.0 | 0.00 | 0.00 | 0.00 | 59 | 1016.0 |
| 20260504034534 | 7 | 286 | 0.0 | 0.0 | 0.00 | 0.00 | 0.00 | 59 | 1015.9 |
| 20260504034031 | 7 | 286 | 0.0 | 0.0 | 0.00 | 0.00 | 0.00 | 57 | 1015.8 |
| 20260504033527 | 7 | 286 | 0.0 | 0.0 | 0.00 | 0.00 | 0.00 | 57 | 1015.9 |
| 20260504032420 | 8 | 286 | 0.0 | 0.0 | 0.00 | 0.00 | 0.00 | 54 | 1015.8 |
| 20260504031918 | 8 | 286 | 0.0 | 0.0 | 0.00 | 0.00 | 0.00 | 54 | 1015.9 |
| 20260504030149 | 8 | 287 | 0.0 | 0.0 | 0.00 | 0.00 | 0.00 | 52 | 1015.7 |
| 20260504025649 | 8 | 287 | 0.0 | 0.0 | 0.00 | 0.00 | 0.00 | 51 | 1015.7 |
| 20260504025130 | 8 | 286 | 0.0 | 1.6 | 0.00 | 0.00 | 0.00 | 52 | 1015.5 |
| 20260504024612 | 8 | 283 | 0.0 | 1.6 | 0.00 | 0.00 | 0.00 | 54 | 1015.6 |
| 20260504024053 | 8 | 258 | 0.0 | 0.0 | 0.00 | 0.00 | 0.00 | 53 | 1015.8 |
| 20260504023559 | 8 | 257 | 0.0 | 0.0 | 0.00 | 0.00 | 0.00 | 52 | 1015.8 |
| 20260504023059 | 8 | 257 | 0.0 | 0.0 | 0.00 | 0.00 | 0.00 | 53 | 1015.6 |
| 20260504022546 | 8 | 257 | 0.0 | 0.0 | 0.00 | 0.00 | 0.00 | 52 | 1015.6 |
| 20260504022037 | 8 | 257 | 0.0 | 0.0 | 0.00 | 0.00 | 0.00 | 53 | 1015.6 |
| 20260504021520 | 9 | 257 | 0.0 | 0.0 | 0.00 | 0.00 | 0.00 | 52 | 1015.6 |
| 20260504021012 | 9 | 257 | 0.0 | 0.0 | 0.00 | 0.00 | 0.00 | 52 | 1015.5 |
| 20260504020501 | 9 | 257 | 0.0 | 0.0 | 0.00 | 0.00 | 0.00 | 51 | 1015.5 |
| 20260504020000 | 9 | 257 | 0.0 | 0.0 | 0.00 | 0.00 | 0.00 | 51 | 1015.5 |
| 20260504014202 | 9 | 257 | 0.0 | 0.0 | 0.00 | 0.00 | 0.00 | 51 | 1015.4 |
| 20260504013706 | 9 | 257 | 0.0 | 0.0 | 0.00 | 0.00 | 0.00 | 51 | 1015.5 |
| 20260504013149 | 9 | 257 | 0.0 | 0.0 | 0.00 | 0.00 | 0.00 | 51 | 1015.4 |
| 20260504012655 | 10 | 257 | 0.0 | 0.0 | 0.00 | 0.00 | 0.00 | 51 | 1015.3 |
| 20260504012145 | 10 | 256 | 0.0 | 0.0 | 0.00 | 0.00 | 0.00 | 50 | 1015.2 |
| 20260504011625 | 10 | 255 | 0.0 | 0.0 | 0.00 | 0.00 | 0.00 | 49 | 1015.2 |
| 20260504011115 | 10 | 255 | 0.0 | 0.0 | 0.00 | 0.00 | 0.00 | 49 | 1015.0 |
| 20260504010619 | 10 | 255 | 0.0 | 0.0 | 0.00 | 0.00 | 0.00 | 50 | 1015.1 |
| 20260504010127 | 10 | 255 | 0.0 | 1.6 | 0.00 | 0.00 | 0.00 | 49 | 1015.0 |
| 20260504005619 | 11 | 255 | 0.0 | 0.0 | 0.00 | 0.00 | 0.00 | 44 | 1015.1 |
| 20260504005059 | 11 | 255 | 0.0 | 0.0 | 0.00 | 0.00 | 0.00 | 43 | 1015.0 |
| 20260504004554 | 11 | 255 | 0.0 | 0.0 | 0.00 | 0.00 | 0.00 | 43 | 1014.9 |
| 20260504004054 | 11 | 255 | 0.0 | 0.0 | 0.00 | 0.00 | 0.00 | 44 | 1014.9 |
| 20260504003535 | 12 | 255 | 0.0 | 0.0 | 0.00 | 0.00 | 0.00 | 42 | 1014.9 |
| 20260504003022 | 12 | 255 | 0.0 | 0.0 | 0.00 | 0.00 | 0.00 | 41 | 1014.9 |
| 20260504002528 | 12 | 255 | 0.0 | 0.0 | 0.00 | 0.00 | 0.00 | 40 | 1014.9 |
| 20260504002019 | 12 | 255 | 0.0 | 0.0 | 0.00 | 0.00 | 0.00 | 39 | 1014.9 |
| 20260504001510 | 13 | 255 | 0.0 | 0.0 | 0.00 | 0.00 | 0.00 | 37 | 1014.8 |
| 20260504001009 | 13 | 255 | 0.0 | 0.0 | 0.00 | 0.00 | 0.00 | 37 | 1014.8 |
| 20260504000517 | 13 | 255 | 0.0 | 0.0 | 0.00 | 0.00 | 0.00 | 36 | 1014.7 |
| 20260504000006 | 13 | 255 | 0.0 | 0.0 | 0.00 | 0.00 | 0.00 | 35 | 1014.7 |
| 20260503235452 | 13 | 255 | 0.0 | 0.0 | 0.00 | 0.00 | 0.00 | 36 | 1014.7 |
| 20260503234957 | 14 | 255 | 0.0 | 1.6 | 0.00 | 0.00 | 0.00 | 35 | 1014.6 |
| 20260503234505 | 14 | 255 | 0.0 | 1.6 | 0.00 | 0.00 | 0.00 | 35 | 1014.6 |
| 20260503233946 | 14 | 258 | 0.0 | 12.9 | 0.00 | 0.00 | 0.00 | 34 | 1014.5 |
| 20260503233445 | 15 | 262 | 0.0 | 12.9 | 0.00 | 0.00 | 0.00 | 33 | 1014.4 |
| 20260503232256 | 15 | 252 | 0.0 | 9.7 | 0.00 | 0.00 | 0.00 | 32 | 1014.4 |
| 20260503231751 | 15 | 262 | 0.0 | 9.7 | 0.00 | 0.00 | 0.00 | 33 | 1014.4 |
| 20260503231254 | 16 | 269 | 0.0 | 9.7 | 0.00 | 0.00 | 0.00 | 32 | 1014.4 |
| 20260503230800 | 16 | 262 | 0.0 | 4.8 | 0.00 | 0.00 | 0.00 | 31 | 1014.3 |
| 20260503225655 | 16 | 260 | 3.2 | 12.9 | 0.00 | 0.00 | 0.00 | 32 | 1014.1 |
| 20260503225148 | 16 | 248 | 3.2 | 12.9 | 0.00 | 0.00 | 0.00 | 31 | 1014.1 |
| 20260503224631 | 16 | 271 | 1.6 | 11.3 | 0.00 | 0.00 | 0.00 | 31 | 1014.1 |
| 20260503224129 | 16 | 240 | 0.0 | 9.7 | 0.00 | 0.00 | 0.00 | 31 | 1014.1 |
| 20260503223003 | 16 | 270 | 1.6 | 11.3 | 0.00 | 0.00 | 0.00 | 30 | 1014.3 |
| 20260503222459 | 16 | 238 | 1.6 | 16.1 | 0.00 | 0.00 | 0.00 | 30 | 1014.4 |
| 20260503221949 | 16 | 265 | 4.8 | 16.1 | 0.00 | 0.00 | 0.00 | 32 | 1014.4 |
| 20260503221441 | 16 | 263 | 4.8 | 17.7 | 0.00 | 0.00 | 0.00 | 32 | 1014.4 |
| 20260503220949 | 16 | 277 | 4.8 | 17.7 | 0.00 | 0.00 | 0.00 | 32 | 1014.4 |
| 20260503220442 | 16 | 264 | 6.4 | 17.7 | 0.00 | 0.00 | 0.00 | 30 | 1014.4 |
| 20260503215932 | 16 | 242 | 4.8 | 17.7 | 0.00 | 0.00 | 0.00 | 30 | 1014.4 |
| 20260503215436 | 16 | 250 | 3.2 | 14.5 | 0.00 | 0.00 | 0.00 | 33 | 1014.4 |
| 20260503214916 | 16 | 268 | 3.2 | 16.1 | 0.00 | 0.00 | 0.00 | 31 | 1014.4 |
| 20260503214409 | 16 | 251 | 3.2 | 16.1 | 0.00 | 0.00 | 0.00 | 29 | 1014.4 |
| 20260503213853 | 16 | 239 | 4.8 | 17.7 | 0.00 | 0.00 | 0.00 | 33 | 1014.4 |
| 20260503213347 | 16 | 250 | 4.8 | 17.7 | 0.00 | 0.00 | 0.00 | 33 | 1014.5 |
| 20260503212835 | 16 | 240 | 4.8 | 17.7 | 0.00 | 0.00 | 0.00 | 33 | 1014.5 |
| 20260503212333 | 16 | 277 | 4.8 | 17.7 | 0.00 | 0.00 | 0.00 | 32 | 1014.6 |
| 20260503211825 | 16 | 221 | 4.8 | 19.3 | 0.00 | 0.00 | 0.00 | 31 | 1014.6 |
| 20260503211323 | 16 | 258 | 6.4 | 19.3 | 0.00 | 0.00 | 0.00 | 32 | 1014.5 |
| 20260503210156 | 16 | 260 | 3.2 | 16.1 | 0.00 | 0.00 | 0.00 | 33 | 1014.5 |
| 20260503205645 | 16 | 238 | 3.2 | 16.1 | 0.00 | 0.00 | 0.00 | 33 | 1014.5 |
| 20260503205150 | 16 | 244 | 3.2 | 16.1 | 0.00 | 0.00 | 0.00 | 33 | 1014.5 |
| 20260503204654 | 16 | 331 | 4.8 | 20.9 | 0.00 | 0.00 | 0.00 | 33 | 1014.5 |
| 20260503204151 | 16 | 262 | 6.4 | 20.9 | 0.00 | 0.00 | 0.00 | 35 | 1014.5 |
| 20260503203648 | 16 | 292 | 8.0 | 22.5 | 0.00 | 0.00 | 0.00 | 32 | 1014.5 |
| 20260503202504 | 16 | 258 | 6.4 | 22.5 | 0.00 | 0.00 | 0.00 | 33 | 1014.6 |
| 20260503202005 | 16 | 306 | 6.4 | 22.5 | 0.00 | 0.00 | 0.00 | 32 | 1014.6 |
| 20260503201447 | 16 | 228 | 4.8 | 16.1 | 0.00 | 0.00 | 0.00 | 31 | 1014.6 |
| 20260503200938 | 16 | 240 | 3.2 | 16.1 | 0.00 | 0.00 | 0.00 | 33 | 1014.8 |
| 20260503200442 | 16 | 253 | 1.6 | 20.9 | 0.00 | 0.00 | 0.00 | 32 | 1014.8 |
| 20260503195951 | 16 | 241 | 4.8 | 20.9 | 0.00 | 0.00 | 0.00 | 31 | 1014.9 |
| 20260503195450 | 16 | 240 | 8.0 | 22.5 | 0.00 | 0.00 | 0.00 | 33 | 1015.0 |
| 20260503194946 | 16 | 253 | 6.4 | 22.5 | 0.00 | 0.00 | 0.00 | 31 | 1015.0 |
| 20260503194439 | 16 | 254 | 4.8 | 22.5 | 0.00 | 0.00 | 0.00 | 35 | 1015.1 |
| 20260503193940 | 15 | 260 | 1.6 | 22.5 | 0.00 | 0.00 | 0.00 | 35 | 1015.2 |
| 20260503193434 | 15 | 11 | 1.6 | 16.1 | 0.00 | 0.00 | 0.00 | 34 | 1015.4 |
| 20260503192917 | 15 | 0 | 3.2 | 16.1 | 0.00 | 0.00 | 0.00 | 31 | 1015.4 |
| 20260503192414 | 15 | 309 | 4.8 | 16.1 | 0.00 | 0.00 | 0.00 | 34 | 1015.5 |
| 20260503191908 | 15 | 298 | 4.8 | 24.1 | 0.00 | 0.00 | 0.00 | 31 | 1015.4 |
| 20260503191406 | 15 | 237 | 4.8 | 24.1 | 0.00 | 0.00 | 0.00 | 37 | 1015.6 |
| 20260503190236 | 15 | 227 | 8.0 | 24.1 | 0.00 | 0.00 | 0.00 | 35 | 1015.6 |
| 20260503185734 | 15 | 248 | 6.4 | 24.1 | 0.00 | 0.00 | 0.00 | 33 | 1015.6 |
| 20260503185225 | 15 | 217 | 6.4 | 24.1 | 0.00 | 0.00 | 0.00 | 36 | 1015.7 |
| 20260503184719 | 15 | 248 | 6.4 | 24.1 | 0.00 | 0.00 | 0.00 | 33 | 1015.7 |
| 20260503184223 | 14 | 237 | 4.8 | 24.1 | 0.00 | 0.00 | 0.00 | 35 | 1015.8 |
| 20260503183711 | 14 | 257 | 3.2 | 16.1 | 0.00 | 0.00 | 0.00 | 36 | 1016.0 |
| 20260503183208 | 14 | 257 | 4.8 | 16.1 | 0.00 | 0.00 | 0.00 | 37 | 1016.1 |
| 20260503182700 | 14 | 234 | 6.4 | 16.1 | 0.00 | 0.00 | 0.00 | 35 | 1016.1 |
| 20260503182158 | 14 | 289 | 6.4 | 24.1 | 0.00 | 0.00 | 0.00 | 37 | 1016.0 |
| 20260503181702 | 14 | 264 | 6.4 | 24.1 | 0.00 | 0.00 | 0.00 | 35 | 1016.1 |
| 20260503180538 | 14 | 257 | 4.8 | 24.1 | 0.00 | 0.00 | 0.00 | 40 | 1016.2 |
| 20260503175420 | 13 | 294 | 6.4 | 20.9 | 0.00 | 0.00 | 0.00 | 38 | 1016.3 |
| 20260503174909 | 13 | 296 | 3.2 | 17.7 | 0.00 | 0.00 | 0.00 | 43 | 1016.2 |
| 20260503174414 | 13 | 270 | 3.2 | 16.1 | 0.00 | 0.00 | 0.00 | 39 | 1016.4 |
| 20260503173909 | 13 | 244 | 3.2 | 19.3 | 0.00 | 0.00 | 0.00 | 41 | 1016.4 |
| 20260503173406 | 13 | 265 | 3.2 | 19.3 | 0.00 | 0.00 | 0.00 | 38 | 1016.4 |
| 20260503172852 | 13 | 272 | 4.8 | 19.3 | 0.00 | 0.00 | 0.00 | 39 | 1016.5 |
| 20260503171728 | 13 | 246 | 3.2 | 20.9 | 0.00 | 0.00 | 0.00 | 40 | 1016.6 |
| 20260503171221 | 12 | 252 | 4.8 | 20.9 | 0.00 | 0.00 | 0.00 | 45 | 1016.5 |